Time,TemperatureF,DewpointF,PressureIn,WindDirection,WindDirectionDegrees,WindSpeedMPH,WindSpeedGustMPH,Humidity,HourlyPrecipIn,Conditions,Clouds,dailyrainin,SoftwareType,DateUTC
2013-05-11 00:07:00,43.6,35.0,30.03,NNW,331,0.0,-999.0,73,-99.99,,,0.00,weatherlink.com 1.10,2013-05-11 04:07:00,
2013-05-11 00:22:00,43.0,36.0,30.02,NNW,330,0.0,-999.0,77,-99.99,,,0.01,weatherlink.com 1.10,2013-05-11 04:22:00,
2013-05-11 00:37:00,41.4,35.0,30.02,NNW,331,0.0,-999.0,79,-99.99,,,0.01,weatherlink.com 1.10,2013-05-11 04:37:00,
2013-05-11 00:52:00,39.3,35.0,30.02,NNW,331,0.0,-999.0,83,-99.99,,,0.01,weatherlink.com 1.10,2013-05-11 04:52:00,
2013-05-11 01:07:00,38.5,34.0,30.01,NNW,330,0.0,-999.0,85,-99.99,,,0.01,weatherlink.com 1.10,2013-05-11 05:07:00,
2013-05-11 01:22:00,37.4,33.0,30.01,NNW,330,0.0,-999.0,85,-99.99,,,0.01,weatherlink.com 1.10,2013-05-11 05:22:00,
2013-05-11 01:37:00,35.9,32.0,30.01,NNW,330,0.0,-999.0,86,-99.99,,,0.01,weatherlink.com 1.10,2013-05-11 05:37:00,
2013-05-11 01:52:00,34.6,31.0,30.00,NNW,330,0.0,-999.0,86,-99.99,,,0.01,weatherlink.com 1.10,2013-05-11 05:52:00,
2013-05-11 02:07:00,33.8,31.0,30.00,NNW,330,0.0,-999.0,89,-99.99,,,0.01,weatherlink.com 1.10,2013-05-11 06:07:00,
2013-05-11 02:22:00,32.7,30.0,29.99,NNW,331,0.0,-999.0,89,-99.99,,,0.01,weatherlink.com 1.10,2013-05-11 06:22:00,
2013-05-11 02:37:00,33.0,30.0,29.99,NNW,330,0.0,-999.0,90,-99.99,,,0.01,weatherlink.com 1.10,2013-05-11 06:37:00,
2013-05-11 02:52:00,32.2,30.0,29.98,NNW,331,0.0,-999.0,90,-99.99,,,0.01,weatherlink.com 1.10,2013-05-11 06:52:00,
2013-05-11 03:07:00,32.0,30.0,29.98,NNW,331,0.0,-999.0,91,-99.99,,,0.01,weatherlink.com 1.10,2013-05-11 07:07:00,
2013-05-11 03:22:00,30.8,28.0,29.98,NNW,331,0.0,-999.0,90,-99.99,,,0.01,weatherlink.com 1.10,2013-05-11 07:22:00,
2013-05-11 03:38:00,30.6,28.0,29.98,NNW,330,0.0,-999.0,91,-99.99,,,0.01,weatherlink.com 1.10,2013-05-11 07:38:00,
2013-05-11 03:53:00,29.9,28.0,29.97,NNW,331,0.0,-999.0,91,-99.99,,,0.01,weatherlink.com 1.10,2013-05-11 07:53:00,
2013-05-11 04:23:00,29.4,27.0,29.96,NNW,331,0.0,-999.0,92,-99.99,,,0.01,weatherlink.com 1.10,2013-05-11 08:23:00,
2013-05-11 04:38:00,28.8,27.0,29.95,NNW,331,0.0,-999.0,92,-99.99,,,0.01,weatherlink.com 1.10,2013-05-11 08:38:00,
2013-05-11 04:53:00,28.9,27.0,29.95,NNW,331,0.0,-999.0,92,-99.99,,,0.01,weatherlink.com 1.10,2013-05-11 08:53:00,
2013-05-11 05:08:00,29.0,27.0,29.94,NNW,331,0.0,-999.0,93,-99.99,,,0.01,weatherlink.com 1.10,2013-05-11 09:08:00,
2013-05-11 05:23:00,28.8,27.0,29.94,NNW,330,0.0,-999.0,92,-99.99,,,0.01,weatherlink.com 1.10,2013-05-11 09:23:00,
2013-05-11 05:38:00,28.6,27.0,29.94,NNW,331,0.0,-999.0,93,-99.99,,,0.01,weatherlink.com 1.10,2013-05-11 09:38:00,
2013-05-11 05:53:00,28.5,27.0,29.93,NNW,331,0.0,-999.0,93,-99.99,,,0.01,weatherlink.com 1.10,2013-05-11 09:53:00,
2013-05-11 06:08:00,28.7,27.0,29.93,NNW,330,0.0,-999.0,93,-99.99,,,0.01,weatherlink.com 1.10,2013-05-11 10:08:00,
2013-05-11 06:23:00,28.9,27.0,29.93,NNW,330,0.0,-999.0,93,-99.99,,,0.01,weatherlink.com 1.10,2013-05-11 10:23:00,
2013-05-11 06:38:00,28.4,27.0,29.93,NNW,330,0.0,-999.0,93,-99.99,,,0.01,weatherlink.com 1.10,2013-05-11 10:38:00,
2013-05-11 06:53:00,29.1,28.0,29.93,NNW,330,0.0,-999.0,94,-99.99,,,0.01,weatherlink.com 1.10,2013-05-11 10:53:00,
2013-05-11 07:08:00,30.5,29.0,29.92,NNW,330,0.0,-999.0,94,-99.99,,,0.01,weatherlink.com 1.10,2013-05-11 11:08:00,
2013-05-11 07:23:00,31.5,30.0,29.92,NNW,330,0.0,-999.0,94,-99.99,,,0.01,weatherlink.com 1.10,2013-05-11 11:23:00,
2013-05-11 07:38:00,33.4,32.0,29.91,NNW,330,0.0,-999.0,94,-99.99,,,0.01,weatherlink.com 1.10,2013-05-11 11:38:00,
2013-05-11 07:53:00,34.4,33.0,29.91,NNW,330,0.0,-999.0,94,-99.99,,,0.01,weatherlink.com 1.10,2013-05-11 11:53:00,
2013-05-11 08:08:00,35.1,34.0,29.90,NNW,330,0.0,-999.0,94,-99.99,,,0.01,weatherlink.com 1.10,2013-05-11 12:08:00,
2013-05-11 08:23:00,37.4,36.0,29.90,NNW,330,0.0,-999.0,95,-99.99,,,0.01,weatherlink.com 1.10,2013-05-11 12:23:00,
2013-05-11 08:38:00,39.4,38.0,29.90,NNW,331,0.0,-999.0,95,-99.99,,,0.01,weatherlink.com 1.10,2013-05-11 12:38:00,
2013-05-11 08:53:00,40.8,38.0,29.89,NNW,331,0.0,-999.0,91,-99.99,,,0.01,weatherlink.com 1.10,2013-05-11 12:53:00,
2013-05-11 09:08:00,41.9,37.0,29.89,NNW,330,0.0,-999.0,83,-99.99,,,0.01,weatherlink.com 1.10,2013-05-11 13:08:00,
2013-05-11 09:23:00,43.0,37.0,29.89,NW,313,3.0,-999.0,78,-99.99,,,0.01,weatherlink.com 1.10,2013-05-11 13:23:00,
2013-05-11 09:38:00,44.0,37.0,29.89,WNW,287,5.0,-999.0,75,-99.99,,,0.01,weatherlink.com 1.10,2013-05-11 13:38:00,
2013-05-11 09:53:00,44.9,37.0,29.88,WSW,243,4.0,-999.0,74,-99.99,,,0.01,weatherlink.com 1.10,2013-05-11 13:53:00,
2013-05-11 10:08:00,45.8,37.0,29.87,WNW,288,1.0,-999.0,70,-99.99,,,0.01,weatherlink.com 1.10,2013-05-11 14:08:00,
2013-05-11 10:23:00,47.2,37.0,29.87,WNW,294,3.0,-999.0,67,-99.99,,,0.01,weatherlink.com 1.10,2013-05-11 14:23:00,
2013-05-11 10:38:00,46.2,37.0,29.87,WSW,257,3.0,-999.0,69,-99.99,,,0.01,weatherlink.com 1.10,2013-05-11 14:38:00,
2013-05-11 10:53:00,45.5,35.0,29.86,WNW,303,3.0,-999.0,68,-99.99,,,0.01,weatherlink.com 1.10,2013-05-11 14:53:00,
2013-05-11 11:08:00,46.9,35.0,29.85,South,188,0.0,-999.0,64,-99.99,,,0.01,weatherlink.com 1.10,2013-05-11 15:08:00,
2013-05-11 11:23:00,47.8,36.0,29.83,West,277,2.0,-999.0,64,-99.99,,,0.01,weatherlink.com 1.10,2013-05-11 15:23:00,
2013-05-11 11:38:00,49.0,36.0,29.82,South,182,6.0,-999.0,62,-99.99,,,0.01,weatherlink.com 1.10,2013-05-11 15:38:00,
2013-05-11 11:53:00,49.9,38.0,29.81,SSW,205,2.0,-999.0,63,-99.99,,,0.01,weatherlink.com 1.10,2013-05-11 15:53:00,
2013-05-11 12:08:00,50.5,38.0,29.81,WNW,284,2.0,-999.0,62,-99.99,,,0.00,weatherlink.com 1.10,2013-05-11 16:08:00,
2013-05-11 12:24:00,51.4,39.0,29.80,WNW,300,2.0,-999.0,64,-99.99,,,0.00,weatherlink.com 1.10,2013-05-11 16:24:00,
2013-05-11 12:39:00,51.9,39.0,29.80,West,279,3.0,-999.0,62,-99.99,,,0.00,weatherlink.com 1.10,2013-05-11 16:39:00,
2013-05-11 12:54:00,52.0,39.0,29.78,WNW,299,3.0,-999.0,62,-99.99,,,0.00,weatherlink.com 1.10,2013-05-11 16:54:00,
2013-05-11 13:09:00,53.0,41.0,29.78,NW,325,0.0,-999.0,64,-99.99,,,0.00,weatherlink.com 1.10,2013-05-11 17:09:00,
2013-05-11 13:24:00,53.1,39.0,29.77,WNW,287,1.0,-999.0,60,-99.99,,,0.00,weatherlink.com 1.10,2013-05-11 17:24:00,
2013-05-11 13:39:00,53.2,39.0,29.76,North,355,1.0,-999.0,59,-99.99,,,0.00,weatherlink.com 1.10,2013-05-11 17:39:00,
2013-05-11 13:54:00,52.9,38.0,29.76,NNW,334,0.0,-999.0,57,-99.99,,,0.00,weatherlink.com 1.10,2013-05-11 17:54:00,
2013-05-11 14:09:00,53.7,39.0,29.75,SE,129,3.0,-999.0,59,-99.99,,,0.00,weatherlink.com 1.10,2013-05-11 18:09:00,
2013-05-11 14:24:00,53.7,39.0,29.74,SE,138,0.0,-999.0,58,-99.99,,,0.00,weatherlink.com 1.10,2013-05-11 18:24:00,
2013-05-11 14:39:00,53.3,39.0,29.74,SSW,202,3.0,-999.0,59,-99.99,,,0.00,weatherlink.com 1.10,2013-05-11 18:39:00,
2013-05-11 14:54:00,48.2,40.0,29.75,WNW,283,14.0,-999.0,72,-99.99,,,0.00,weatherlink.com 1.10,2013-05-11 18:54:00,
2013-05-11 15:09:00,42.6,39.0,29.78,NW,314,5.0,-999.0,86,-99.99,,,0.01,weatherlink.com 1.10,2013-05-11 19:09:00,
2013-05-11 15:24:00,40.9,38.0,29.79,WNW,295,5.0,-999.0,88,-99.99,,,0.02,weatherlink.com 1.10,2013-05-11 19:24:00,
2013-05-11 15:39:00,40.2,38.0,29.79,WNW,292,12.0,-999.0,90,-99.99,,,0.03,weatherlink.com 1.10,2013-05-11 19:39:00,
2013-05-11 15:54:00,40.0,38.0,29.80,NW,305,4.0,-999.0,91,-99.99,,,0.05,weatherlink.com 1.10,2013-05-11 19:54:00,
2013-05-11 16:09:00,38.9,36.0,29.81,NW,306,12.0,-999.0,90,-99.99,,,0.08,weatherlink.com 1.10,2013-05-11 20:09:00,
2013-05-11 16:24:00,37.3,35.0,29.82,West,266,11.0,-999.0,91,-99.99,,,0.11,weatherlink.com 1.10,2013-05-11 20:24:00,
2013-05-11 16:39:00,35.3,33.0,29.81,WNW,283,3.0,-999.0,91,-99.99,,,0.13,weatherlink.com 1.10,2013-05-11 20:39:00,
2013-05-11 16:54:00,34.4,32.0,29.82,WSW,255,3.0,-999.0,92,-99.99,,,0.13,weatherlink.com 1.10,2013-05-11 20:54:00,
2013-05-11 17:09:00,34.1,32.0,29.82,West,267,1.0,-999.0,92,-99.99,,,0.13,weatherlink.com 1.10,2013-05-11 21:09:00,
2013-05-11 17:25:00,33.9,32.0,29.82,West,273,1.0,-999.0,93,-99.99,,,0.13,weatherlink.com 1.10,2013-05-11 21:25:00,
2013-05-11 17:40:00,33.8,32.0,29.82,NW,307,1.0,-999.0,93,-99.99,,,0.13,weatherlink.com 1.10,2013-05-11 21:40:00,
2013-05-11 17:55:00,33.9,32.0,29.82,West,279,5.0,-999.0,93,-99.99,,,0.13,weatherlink.com 1.10,2013-05-11 21:55:00,
2013-05-11 18:10:00,34.1,33.0,29.81,NW,307,2.0,-999.0,94,-99.99,,,0.13,weatherlink.com 1.10,2013-05-11 22:10:00,
2013-05-11 18:25:00,34.3,33.0,29.82,NW,310,4.0,-999.0,94,-99.99,,,0.13,weatherlink.com 1.10,2013-05-11 22:25:00,
2013-05-11 18:40:00,34.4,33.0,29.82,NW,307,4.0,-999.0,94,-99.99,,,0.13,weatherlink.com 1.10,2013-05-11 22:40:00,
2013-05-11 18:55:00,34.4,33.0,29.82,WNW,290,0.0,-999.0,94,-99.99,,,0.14,weatherlink.com 1.10,2013-05-11 22:55:00,
2013-05-11 19:10:00,35.0,34.0,29.82,NW,320,4.0,-999.0,94,-99.99,,,0.16,weatherlink.com 1.10,2013-05-11 23:10:00,
2013-05-11 19:25:00,35.2,34.0,29.82,WNW,300,3.0,-999.0,94,-99.99,,,0.17,weatherlink.com 1.10,2013-05-11 23:25:00,
2013-05-11 19:40:00,35.3,34.0,29.81,NW,310,5.0,-999.0,94,-99.99,,,0.17,weatherlink.com 1.10,2013-05-11 23:40:00,
2013-05-11 19:55:00,35.5,34.0,29.81,NW,317,10.0,-999.0,94,-99.99,,,0.18,weatherlink.com 1.10,2013-05-11 23:55:00,
2013-05-11 20:10:00,35.5,34.0,29.81,WNW,303,12.0,-999.0,93,-99.99,,,0.20,weatherlink.com 1.10,2013-05-12 00:10:00,
2013-05-11 20:25:00,35.8,34.0,29.81,NW,307,8.0,-999.0,93,-99.99,,,0.20,weatherlink.com 1.10,2013-05-12 00:25:00,
2013-05-11 20:40:00,35.8,34.0,29.81,NNW,329,12.0,-999.0,92,-99.99,,,0.20,weatherlink.com 1.10,2013-05-12 00:40:00,
2013-05-11 20:55:00,35.7,34.0,29.80,NW,319,9.0,-999.0,92,-99.99,,,0.21,weatherlink.com 1.10,2013-05-12 00:55:00,
2013-05-11 21:10:00,35.8,34.0,29.79,WNW,291,11.0,-999.0,92,-99.99,,,0.22,weatherlink.com 1.10,2013-05-12 01:10:00,
2013-05-11 21:25:00,35.8,34.0,29.79,WNW,299,10.0,-999.0,92,-99.99,,,0.24,weatherlink.com 1.10,2013-05-12 01:25:00,
2013-05-11 21:40:00,36.0,34.0,29.79,WNW,290,14.0,-999.0,92,-99.99,,,0.24,weatherlink.com 1.10,2013-05-12 01:40:00,
2013-05-11 21:55:00,36.0,34.0,29.79,West,279,9.0,-999.0,91,-99.99,,,0.25,weatherlink.com 1.10,2013-05-12 01:55:00,
2013-05-11 22:10:00,36.0,34.0,29.78,NW,322,8.0,-999.0,92,-99.99,,,0.26,weatherlink.com 1.10,2013-05-12 02:10:00,
2013-05-11 22:25:00,36.2,34.0,29.77,NW,308,10.0,-999.0,92,-99.99,,,0.28,weatherlink.com 1.10,2013-05-12 02:25:00,
2013-05-11 22:40:00,36.7,35.0,29.77,WNW,294,5.0,-999.0,92,-99.99,,,0.28,weatherlink.com 1.10,2013-05-12 02:40:00,
2013-05-11 22:55:00,36.8,35.0,29.76,WNW,298,8.0,-999.0,91,-99.99,,,0.29,weatherlink.com 1.10,2013-05-12 02:55:00,
2013-05-11 23:10:00,37.0,35.0,29.75,WSW,249,7.0,-999.0,91,-99.99,,,0.30,weatherlink.com 1.10,2013-05-12 03:10:00,
2013-05-11 23:25:00,36.7,34.0,29.74,NW,310,14.0,-999.0,91,-99.99,,,0.31,weatherlink.com 1.10,2013-05-12 03:25:00,
2013-05-11 23:40:00,36.8,35.0,29.73,West,279,6.0,-999.0,91,-99.99,,,0.32,weatherlink.com 1.10,2013-05-12 03:40:00,
2013-05-11 23:55:00,36.9,35.0,29.72,West,274,7.0,-999.0,91,-99.99,,,0.33,weatherlink.com 1.10,2013-05-12 03:55:00,